[[{"header":{"parameterUnit":"m.s-1","parameterCategory":2,"la1":30.2991,"la2":30.254,"lo1":-89.0895,"lo2":-89.0444,"dy":0.0017,"dx":0.0017,"nx":28,"ny":28,"refTime":"2024-04-19T09:00:00:Z","depth":"0","parameterNumber":2,"parameterNumberName":"U-component_of_CURRENTS"},"data":[0,0,0,0,0,0,0,0,0,0,0,0,0,0,0,0,0,0,0,0,0,0,0,0,0,0,0,0,0,0,0,0,0,0,0,0,0,0,0,0,0,0,0,0,0,0,0,0,0,0,0,0,0,0,0,0,0,0,0.3597,0.3597,0,0.3568,0.3568,0.3567,0.3518,0.3517,0.3517,0.3516,0.3467,0.3466,0.3466,0,0,0,0,0,0,0,0,0,0,0,0,0,0.3589,0.3589,0.3597,0.3597,0.3597,0.3568,0.3568,0.3567,0.3518,0.3517,0.3516,0.3516,0.3467,0.3466,0.3466,0,0,0,0,0,0,0,0,0,0,0,0,0,0.3577,0.359,0.3597,0.3571,0.3568,0.3568,0.3568,0.3567,0.3518,0.3517,0.3516,0.3515,0.3467,0.3466,0.3465,0.348,0,0,0.3462,0.3462,0,0,0,0,0,0,0,0,0.3578,0.3577,0.3575,0.3573,0.357,0.3548,0.3547,0.3537,0.3519,0.3535,0.3516,0.3515,0.3495,0.3491,0.3485,0.3477,0.3475,0.3462,0.3462,0.3461,0.3461,0,0,0,0,0,0,0,0.3579,0.3578,0.3583,0.3575,0.3572,0.3554,0.3551,0.3545,0.3518,0.3533,0.353,0.3531,0.3492,0.3486,0.3483,0.3475,0.3462,0.3461,0.3461,0.346,0.3449,0.345,0,0,0,0,0,0,0.359,0.3579,0.3584,0.3582,0.3574,0.3555,0.3551,0.3554,0.3519,0.3513,0.3532,0.3529,0.3488,0.3484,0.3481,0.3487,0.3461,0.346,0.346,0.3449,0.3449,0.345,0,0,0,0,0,0,0.359,0.3591,0.3585,0.3582,0.358,0.3557,0.3559,0.3554,0.3543,0.3519,0.3512,0.3527,0.3487,0.3483,0.3474,0.3485,0.346,0.3459,0.3449,0.3449,0.345,0.3505,0,0,0,0,0,0,0.359,0.3591,0.3595,0.3583,0.3581,0.3578,0.356,0.3554,0.3547,0.3542,0.3512,0.3507,0.3486,0.3476,0.3473,0.3483,0.3458,0.3448,0.3449,0.3449,0.3502,0.3507,0.3511,0,0,0,0,0,0.359,0.359,0.3595,0.3596,0.3588,0.3578,0.3575,0.3553,0.3548,0.354,0.3526,0.3507,0.3477,0.3476,0.3472,0.3482,0.3448,0.3449,0.3449,0.3501,0.3506,0.3511,0,0,0,0,0,0,0.3579,0.3586,0.359,0.3591,0.3587,0.357,0.3563,0.3558,0.3542,0.3539,0.3516,0.3509,0.3507,0.3487,0.3486,0.3479,0.3458,0.3458,0.3498,0.3503,0.3507,0.3515,0.3457,0,0,0,0,0,0.3586,0.3591,0.3593,0.3592,0.3593,0.3584,0.3579,0.3569,0.3556,0.3547,0.353,0.3514,0.3509,0.3499,0.3488,0.3487,0.3498,0.3489,0.3493,0.3497,0.35,0.354,0.3549,0.3452,0.3452,0.3452,0,0,0.3579,0.3586,0.3586,0.3591,0.3587,0.3585,0.3576,0.357,0.3569,0.3547,0.3536,0.3531,0.3514,0.3512,0.3508,0.3494,0.3531,0.3498,0.3501,0.3502,0.3542,0.3552,0.356,0.3453,0.3452,0.3452,0,0,0.3564,0.3579,0.3577,0.3581,0.3585,0.3584,0.3586,0.3577,0.3573,0.3571,0.356,0.3561,0.3542,0.3535,0.353,0.355,0.3557,0.3547,0.3571,0.361,0.3619,0.3627,0.3663,0.3674,0.3544,0.3544,0.3544,0,0.3554,0.3558,0.3572,0.3574,0.3576,0.3586,0.3582,0.3585,0.3574,0.3578,0.3569,0.357,0.3553,0.3566,0.3572,0.3561,0.3589,0.3556,0.3619,0.3626,0.3634,0.3668,0.3679,0.3547,0.3547,0.3547,0.3546,0,0.3536,0.3545,0.3544,0.3556,0.3562,0.3559,0.3576,0.3579,0.3585,0.359,0.3607,0.36,0.3599,0.3598,0.3592,0.3633,0.364,0.3627,0.3612,0.3647,0.3681,0.3691,0.3551,0.355,0.3549,0.3549,0,0,0.3483,0.3524,0.3522,0.3525,0.3554,0.3547,0.357,0.3583,0.3586,0.3606,0.3611,0.363,0.3644,0.364,0.3641,0.3673,0.3749,0.3678,0.3679,0.3724,0.3852,0.3851,0.3862,0.3762,0.3764,0.3765,0.3859,0,0.3457,0.3464,0.3495,0.3491,0.349,0.3525,0.3536,0.3559,0.3578,0.3585,0.3621,0.3625,0.3657,0.3655,0.3706,0.3719,0.3779,0.3725,0.38,0.3802,0.3807,0.3875,0.3848,0.3929,0.3869,0.3871,0.3872,0,0.3412,0.3428,0.343,0.3456,0.3458,0.3462,0.3482,0.3497,0.354,0.3558,0.3608,0.3628,0.3681,0.3692,0.38,0.3772,0.3831,0.3856,0.386,0.3846,0.3822,0.388,0.395,0.3806,0.3888,0.3887,0.3886,0,0.334,0.3369,0.3371,0.338,0.3419,0.3424,0.3442,0.3483,0.3493,0.3542,0.3551,0.3634,0.3655,0.375,0.3831,0.3822,0.3945,0.3926,0.3994,0.3994,0.3977,0.3972,0.3923,0.4032,0.4032,0.4032,0.4032,0,0.3285,0.3271,0.3336,0.333,0.3321,0.3371,0.3365,0.3398,0.344,0.3445,0.3536,0.3558,0.3676,0.3759,0.3841,0.3959,0.3969,0.402,0.4028,0.3994,0.399,0.3865,0.3779,0.4035,0.4034,0.4034,0.4033,0,0.3181,0.3229,0.3222,0.3273,0.3282,0.3272,0.3309,0.3304,0.3369,0.3377,0.3393,0.3509,0.3623,0.375,0.3883,0.396,0.3957,0.4108,0.4061,0.4062,0.3967,0.3885,0.3709,0.3616,0.4186,0.4187,0.4187,0,0.3118,0.3115,0.3164,0.3156,0.3172,0.3178,0.3176,0.325,0.3256,0.3341,0.3335,0.3462,0.3547,0.3766,0.3927,0.4096,0.3965,0.4162,0.4134,0.3974,0.3888,0.3684,0.3603,0.4137,0.4137,0.4138,0.4138,0,0.2997,0.3028,0.3033,0.3035,0.3033,0.3042,0.3056,0.3058,0.314,0.3175,0.3244,0.3322,0.356,0.3714,0.395,0.4075,0.395,0.4168,0.4019,0.3866,0.3624,0.3535,0.405,0.4139,0.4138,0.4138,0.4138,0.4138,0.289,0.2876,0.29,0.2881,0.2886,0.2892,0.2868,0.2915,0.2941,0.2981,0.3122,0.3228,0.3507,0.3839,0.3936,0.4056,0.3937,0.4009,0.3934,0.3747,0.3611,0.4127,0.4205,0.4205,0.4206,0.4206,0.4206,0,0.274,0.2745,0.2735,0.2722,0.2682,0.2744,0.2759,0.2739,0.2742,0.2866,0.2945,0.3213,0.3425,0.3666,0.3902,0.3828,0.3711,0.3728,0.3436,0.3381,0.3886,0.3839,0.382,0.382,0.382,0.382,0.382,0.382,0.2655,0.2602,0.2613,0.2515,0.2506,0.2451,0.2449,0.2469,0.2547,0.2645,0.2771,0.2938,0.3205,0.3458,0.3524,0.3534,0.3246,0.3136,0.3022,0.339,0.3409,0.3427,0.3361,0.3242,0.3241,0.246,0.2454,0.2449]},{"header":{"parameterUnit":"m.s-1","parameterCategory":2,"la1":30.2991,"la2":30.254,"lo1":-89.0895,"lo2":-89.0444,"dy":0.0017,"dx":0.0017,"nx":28,"ny":28,"refTime":"2024-04-19T09:00:00:Z","depth":"0","parameterNumber":3,"parameterNumberName":"V-component_of_CURRENTS"},"data":[0,0,0,0,0,0,0,0,0,0,0,0,0,0,0,0,0,0,0,0,0,0,0,0,0,0,0,0,0,0,0,0,0,0,0,0,0,0,0,0,0,0,0,0,0,0,0,0,0,0,0,0,0,0,0,0,0,0,0.0379,0.0379,0,0.0324,0.0323,0.0322,0.0309,0.0309,0.031,0.031,0.0224,0.0222,0.0219,0,0,0,0,0,0,0,0,0,0,0,0,0,0.0394,0.0395,0.0379,0.0379,0.0378,0.0324,0.0323,0.0322,0.0308,0.0309,0.031,0.031,0.0225,0.0222,0.0219,0,0,0,0,0,0,0,0,0,0,0,0,0,0.0367,0.0395,0.038,0.0366,0.0364,0.0324,0.0323,0.0322,0.0308,0.0309,0.031,0.031,0.0226,0.0222,0.0218,0.0179,0,0,0.0206,0.0204,0,0,0,0,0,0,0,0,0.0369,0.0367,0.0368,0.0367,0.0365,0.0325,0.0297,0.0273,0.0308,0.0328,0.031,0.0311,0.0255,0.0249,0.0236,0.0175,0.0171,0.0205,0.0203,0.0201,0.02,0,0,0,0,0,0,0,0.0371,0.0368,0.0356,0.0368,0.0366,0.0335,0.0333,0.0292,0.0287,0.0326,0.0326,0.0321,0.0254,0.024,0.0233,0.017,0.0206,0.0202,0.0199,0.0198,0.0011,0.0009,0,0,0,0,0,0,0.0384,0.0371,0.0358,0.0355,0.037,0.0335,0.0332,0.0336,0.0288,0.0282,0.0321,0.0321,0.0246,0.0238,0.023,0.0162,0.0201,0.0197,0.0195,0.0014,0.0011,0.0008,0,0,0,0,0,0,0.0384,0.0383,0.036,0.0362,0.0357,0.0335,0.0339,0.0335,0.0319,0.0284,0.0278,0.031,0.0246,0.0236,0.0178,0.016,0.0196,0.0192,0.0017,0.0013,0.0009,0.0037,0,0,0,0,0,0,0.0385,0.0384,0.0387,0.0363,0.0357,0.0332,0.0338,0.0333,0.0316,0.0316,0.0272,0.0266,0.0246,0.0184,0.0174,0.0155,0.0189,0.002,0.0015,0.001,0.004,0.0035,0.0031,0,0,0,0,0,0.0386,0.0388,0.0388,0.0386,0.0364,0.0331,0.0325,0.031,0.0315,0.0301,0.0266,0.0267,0.0147,0.0179,0.0168,0.0147,0.0022,0.0016,0.0011,0.0042,0.0036,0.0031,0,0,0,0,0,0,0.0392,0.0386,0.0386,0.0385,0.0359,0.033,0.0317,0.0307,0.0269,0.027,0.024,0.0229,0.017,0.0142,0.0178,0.0072,0.0082,0.0074,0.0109,0.0103,0.0099,0.0157,0.0185,0,0,0,0,0,0.0397,0.04,0.0379,0.0376,0.0366,0.0341,0.0326,0.0315,0.0281,0.0267,0.0234,0.0186,0.0135,0.011,0.0061,0.0007,0.0018,-0.0021,-0.0025,-0.0028,0.0006,-0.0022,-0.0023,-0.0011,-0.0011,-0.0011,0,0,0.0399,0.0395,0.0397,0.0378,0.0359,0.0338,0.0333,0.031,0.0292,0.0261,0.022,0.0172,0.0115,0.0055,0.0025,0.0033,-0.0028,-0.0035,-0.0036,-0.0,-0.0028,-0.0028,-0.0028,-0.0014,-0.0014,-0.0013,0,0,0.0395,0.04,0.0396,0.0375,0.035,0.0333,0.0327,0.0291,0.0278,0.0227,0.0196,0.0144,0.0063,0.0026,-0.0005,-0.0066,-0.005,-0.0098,-0.0066,-0.0094,-0.0094,-0.0093,-0.0068,-0.0066,-0.0098,-0.0098,-0.0098,0,0.0396,0.0397,0.0385,0.0368,0.0361,0.0333,0.0321,0.0293,0.0241,0.0236,0.0215,0.0112,0.0055,0.0004,-0.0024,-0.0069,-0.0062,-0.0033,-0.0093,-0.0092,-0.0092,-0.0067,-0.0064,-0.0097,-0.0097,-0.0098,-0.0098,0,0.0383,0.0384,0.0376,0.0358,0.0341,0.0326,0.0295,0.0274,0.0254,0.0231,0.018,0.0106,0.0059,0.0009,-0.0025,-0.0062,-0.0049,-0.009,-0.0061,-0.009,-0.0064,-0.0061,-0.0096,-0.0097,-0.0097,-0.0097,0,0,0.039,0.0375,0.0373,0.0376,0.0343,0.0331,0.0307,0.0287,0.0292,0.0227,0.0232,0.012,0.0106,0.0069,0.0014,-0.0019,-0.0028,-0.0047,-0.0049,0.0014,-0.0044,-0.0061,-0.006,-0.0076,-0.0076,-0.0076,-0.002,0,0.0387,0.0377,0.0368,0.036,0.0356,0.034,0.0327,0.0305,0.0284,0.0274,0.0215,0.0178,0.012,0.0098,0.0059,-0.0004,-0.0022,-0.0036,-0.0055,-0.0054,-0.0038,-0.0059,-0.0045,0.0003,-0.0017,-0.0017,-0.0016,0,0.0379,0.038,0.0379,0.0391,0.039,0.0378,0.0388,0.0371,0.035,0.0338,0.0312,0.0272,0.0229,0.0167,0.0101,0.0099,0.0041,-0.001,-0.001,-0.0025,-0.0068,0.0021,0.0009,-0.0136,-0.0012,-0.0013,-0.0013,0,0.0398,0.0393,0.0405,0.0401,0.0396,0.0405,0.0404,0.0391,0.0398,0.0384,0.0393,0.0347,0.0323,0.0252,0.0156,0.0131,0.0092,0.0038,-0.0021,-0.0021,-0.0009,-0.0009,-0.013,-0.001,-0.001,-0.001,-0.001,0,0.0403,0.0412,0.0417,0.0419,0.0445,0.0433,0.0459,0.0453,0.046,0.0472,0.0431,0.0438,0.0337,0.0299,0.0208,0.0125,0.0136,0.0009,-0.0014,-0.0002,-0.0002,-0.0129,-0.0228,-0.0008,-0.0008,-0.0009,-0.0009,0,0.041,0.0413,0.0428,0.0441,0.045,0.0464,0.0492,0.0511,0.0515,0.0536,0.0536,0.0515,0.0474,0.0389,0.0282,0.0191,0.0029,0.0062,0.0112,0.0093,-0.0109,-0.0206,-0.0292,-0.036,0.0028,0.0028,0.0027,0,0.0407,0.0415,0.0443,0.0461,0.0466,0.0492,0.0514,0.053,0.0552,0.0577,0.0592,0.0575,0.0566,0.0452,0.0303,0.019,0.0032,0.0094,0.0021,-0.0102,-0.0227,-0.0272,-0.0327,0.0062,0.0062,0.0062,0.0062,0,0.0405,0.0418,0.0433,0.0474,0.0502,0.0541,0.0573,0.0606,0.0625,0.0664,0.0699,0.0702,0.0597,0.051,0.0349,0.0231,-0.0012,0.009,-0.0064,-0.0226,-0.0255,-0.0336,0.0039,0.0063,0.0063,0.0063,0.0063,0.0062,0.0403,0.042,0.045,0.0491,0.0529,0.0588,0.0634,0.068,0.0746,0.0825,0.0806,0.0881,0.072,0.0516,0.0304,-0.0019,-0.0032,-0.0122,-0.0224,-0.0252,-0.035,0.0048,0.0044,0.0044,0.0044,0.0043,0.0043,0,0.0403,0.0432,0.0469,0.0527,0.0579,0.06,0.0675,0.0738,0.0832,0.0937,0.0998,0.1055,0.0796,0.0512,0.0089,-0.0239,-0.0365,-0.0424,-0.0498,-0.0539,-0.0197,-0.0232,-0.0266,-0.0266,-0.0265,-0.0265,-0.0265,-0.0265,0.0407,0.0444,0.0473,0.0562,0.0609,0.0698,0.0753,0.0852,0.0957,0.1159,0.1302,0.1396,0.1233,0.0325,-0.035,-0.0547,-0.0783,-0.083,-0.0957,-0.0752,-0.0732,-0.0713,-0.0769,-0.0915,-0.0916,-0.123,-0.1233,-0.1236]}],[{"header":{"parameterUnit":"m.s-1","parameterCategory":2,"la1":30.2991,"la2":30.254,"lo1":-89.0895,"lo2":-89.0444,"dy":0.0017,"dx":0.0017,"nx":28,"ny":28,"refTime":"2024-04-19T09:00:00:Z","depth":"2","parameterNumber":2,"parameterNumberName":"U-component_of_CURRENTS"},"data":[0,0,0,0,0,0,0,0,0,0,0,0,0,0,0,0,0,0,0,0,0,0,0,0,0,0,0,0,0,0,0,0,0,0,0,0,0,0,0,0,0,0,0,0,0,0,0,0,0,0,0,0,0,0,0,0,0,0,0.1131,0.1131,0,0.1134,0.1134,0.1134,0.1147,0.1147,0.1148,0.1148,0.1186,0.1187,0.1188,0,0,0,0,0,0,0,0,0,0,0,0,0,0.115,0.1149,0.1131,0.1131,0.1131,0.1134,0.1134,0.1134,0.1147,0.1147,0.1148,0.1148,0.1186,0.1187,0.1188,0,0,0,0,0,0,0,0,0,0,0,0,0,0.1146,0.1149,0.1131,0.1138,0.1138,0.1134,0.1134,0.1134,0.1147,0.1147,0.1148,0.1148,0.1186,0.1187,0.1188,0.1187,0,0,0.1192,0.1192,0,0,0,0,0,0,0,0,0.1146,0.1146,0.1137,0.1137,0.1138,0.114,0.1155,0.1153,0.1147,0.1144,0.1148,0.1148,0.1174,0.1176,0.1176,0.1189,0.119,0.1192,0.1192,0.1193,0.1193,0,0,0,0,0,0,0,0.1147,0.1146,0.1133,0.1137,0.1137,0.1145,0.1145,0.1154,0.1158,0.1144,0.1145,0.1145,0.1174,0.1174,0.1177,0.1191,0.1192,0.1193,0.1193,0.1194,0.1234,0.1235,0,0,0,0,0,0,0.1144,0.1146,0.1133,0.1133,0.1143,0.1144,0.1144,0.1139,0.1157,0.1159,0.1144,0.1145,0.1172,0.1175,0.1178,0.1196,0.1193,0.1194,0.1195,0.1234,0.1235,0.1235,0,0,0,0,0,0,0.1145,0.1143,0.1132,0.1139,0.1138,0.1143,0.1138,0.1139,0.1148,0.1156,0.116,0.1153,0.1173,0.1176,0.1195,0.1197,0.1195,0.1196,0.1234,0.1234,0.1235,0.1222,0,0,0,0,0,0,0.1145,0.1143,0.1145,0.1139,0.1138,0.1132,0.1138,0.1139,0.1146,0.1148,0.1165,0.1168,0.1173,0.1193,0.1196,0.1199,0.1196,0.1233,0.1234,0.1235,0.1221,0.1222,0.1222,0,0,0,0,0,0.1146,0.1139,0.1144,0.1143,0.1138,0.1132,0.1133,0.1138,0.1146,0.1148,0.1163,0.1168,0.12,0.1194,0.1198,0.1201,0.1233,0.1234,0.1234,0.1221,0.1222,0.1222,0,0,0,0,0,0,0.1154,0.114,0.1145,0.1138,0.1139,0.1134,0.1136,0.1142,0.1154,0.1161,0.1172,0.1176,0.1195,0.1201,0.1195,0.1216,0.1217,0.1219,0.1206,0.1207,0.1207,0.1216,0.1197,0,0,0,0,0,0.1155,0.1145,0.1141,0.1138,0.1136,0.114,0.1141,0.1145,0.1152,0.1158,0.1171,0.1186,0.1199,0.1206,0.122,0.1228,0.1258,0.1234,0.1234,0.1234,0.1245,0.1278,0.1282,0.1238,0.1238,0.1238,0,0,0.1159,0.115,0.1146,0.1139,0.114,0.1138,0.1142,0.1144,0.115,0.1161,0.1178,0.119,0.1204,0.1215,0.1224,0.1221,0.1266,0.1235,0.1235,0.1246,0.1279,0.1283,0.1287,0.1238,0.1238,0.1238,0,0,0.1153,0.1153,0.1141,0.1141,0.1141,0.1142,0.1144,0.1147,0.1156,0.117,0.1182,0.1197,0.1215,0.1223,0.1229,0.1239,0.1269,0.1244,0.1247,0.1278,0.1282,0.1286,0.1347,0.1356,0.1239,0.1239,0.1239,0,0.1163,0.1148,0.114,0.1133,0.1139,0.1144,0.1146,0.115,0.1162,0.1178,0.1177,0.1215,0.1219,0.1238,0.1237,0.1239,0.1275,0.1242,0.1278,0.1282,0.1286,0.1348,0.1358,0.1238,0.1238,0.1238,0.1238,0,0.1145,0.1143,0.1138,0.1131,0.1136,0.1138,0.1144,0.1158,0.1172,0.1183,0.1213,0.1219,0.1249,0.124,0.124,0.1269,0.1292,0.1277,0.1276,0.129,0.1354,0.1365,0.1238,0.1238,0.1238,0.1238,0,0,0.1148,0.1129,0.1132,0.1137,0.1139,0.1144,0.1157,0.1175,0.1206,0.1208,0.1249,0.1246,0.1265,0.1274,0.1275,0.1285,0.1339,0.1292,0.1294,0.1351,0.1439,0.1528,0.1549,0.1329,0.1331,0.1332,0.1479,0,0.1144,0.1129,0.1126,0.1136,0.1135,0.1153,0.1173,0.1195,0.1221,0.1262,0.1266,0.131,0.1273,0.1304,0.1303,0.1341,0.1365,0.1303,0.1419,0.1424,0.1499,0.1563,0.1312,0.1428,0.149,0.1492,0.1493,0,0.113,0.1125,0.1126,0.115,0.1155,0.1172,0.1225,0.1244,0.1293,0.1322,0.1352,0.1374,0.1406,0.1371,0.1431,0.1398,0.1423,0.1435,0.1441,0.1537,0.1533,0.1421,0.1446,0.1512,0.151,0.1509,0.1508,0,0.1128,0.1132,0.1137,0.1141,0.1164,0.1191,0.1219,0.1269,0.1308,0.138,0.1431,0.1458,0.1513,0.152,0.1563,0.1505,0.1646,0.157,0.1673,0.168,0.1499,0.1489,0.1617,0.1617,0.1617,0.1616,0.1616,0,0.1116,0.1127,0.1143,0.1146,0.1185,0.1207,0.1268,0.1305,0.1378,0.1441,0.1473,0.1546,0.1553,0.1631,0.1622,0.1724,0.1706,0.1709,0.1732,0.1493,0.1481,0.1567,0.1559,0.1622,0.162,0.1619,0.1618,0,0.1102,0.1109,0.1123,0.1158,0.1179,0.1212,0.1292,0.1335,0.1418,0.1508,0.1544,0.1647,0.1776,0.1809,0.1874,0.1845,0.1901,0.1937,0.1689,0.1681,0.189,0.188,0.2048,0.2052,0.2056,0.2059,0.2062,0,0.1084,0.1086,0.1129,0.1148,0.1168,0.1224,0.1262,0.1345,0.1402,0.1571,0.1619,0.1794,0.1903,0.2073,0.2021,0.2068,0.2091,0.1922,0.1758,0.1933,0.1938,0.1921,0.1906,0.1503,0.1501,0.1499,0.1498,0,0.1056,0.108,0.1092,0.1131,0.1173,0.1215,0.1288,0.1338,0.1452,0.1555,0.1721,0.1834,0.1986,0.195,0.2053,0.2021,0.1888,0.1898,0.2135,0.1465,0.144,0.1439,0.1437,0.1483,0.1484,0.1485,0.1486,0.1487,0.1043,0.105,0.1073,0.1112,0.1152,0.1195,0.1227,0.1315,0.1417,0.1535,0.1693,0.1772,0.1775,0.1795,0.1811,0.1802,0.1893,0.1775,0.177,0.1768,0.1711,0.1698,0.1779,0.1782,0.1785,0.1787,0.1789,0,0.1015,0.1031,0.1054,0.1089,0.111,0.1157,0.1229,0.1246,0.1344,0.1433,0.1557,0.1412,0.1443,0.1514,0.1435,0.1485,0.1342,0.1489,0.1239,0.1256,0.1271,0.1178,0.1109,0.1108,0.1107,0.1106,0,0,0.1001,0.1006,0.1017,0.1036,0.1069,0.1091,0.1125,0.1159,0.1195,0.1201,0.1195,0.1269,0.136,0.114,0.1164,0.1146,0.1179,0.1105,0.1631,0.1344,0.1356,0.141,0.1287,0,0,0,0,0]},{"header":{"parameterUnit":"m.s-1","parameterCategory":2,"la1":30.2991,"la2":30.254,"lo1":-89.0895,"lo2":-89.0444,"dy":0.0017,"dx":0.0017,"nx":28,"ny":28,"refTime":"2024-04-19T09:00:00:Z","depth":"2","parameterNumber":3,"parameterNumberName":"V-component_of_CURRENTS"},"data":[0,0,0,0,0,0,0,0,0,0,0,0,0,0,0,0,0,0,0,0,0,0,0,0,0,0,0,0,0,0,0,0,0,0,0,0,0,0,0,0,0,0,0,0,0,0,0,0,0,0,0,0,0,0,0,0,0,0,0.041,0.041,0,0.039,0.039,0.039,0.0343,0.0343,0.0342,0.0341,0.026,0.0259,0.0258,0,0,0,0,0,0,0,0,0,0,0,0,0,0.0414,0.0414,0.041,0.041,0.041,0.039,0.039,0.039,0.0344,0.0342,0.0341,0.034,0.0261,0.0259,0.0258,0,0,0,0,0,0,0,0,0,0,0,0,0,0.0404,0.0414,0.041,0.0385,0.0382,0.039,0.039,0.0389,0.0344,0.0342,0.0341,0.034,0.0261,0.0259,0.0257,0.0273,0,0,0.0251,0.0251,0,0,0,0,0,0,0,0,0.0405,0.0404,0.0389,0.0387,0.0384,0.0368,0.0362,0.0348,0.0344,0.0358,0.0341,0.0339,0.0292,0.0288,0.0287,0.0269,0.0266,0.0251,0.025,0.0249,0.0249,0,0,0,0,0,0,0,0.0406,0.0405,0.0402,0.0389,0.0386,0.0376,0.0373,0.0359,0.0332,0.0357,0.0353,0.0352,0.029,0.0289,0.0285,0.0265,0.0251,0.025,0.0248,0.0248,0.0229,0.023,0,0,0,0,0,0,0.041,0.0406,0.0403,0.0401,0.0392,0.0377,0.0374,0.0374,0.0333,0.0326,0.0353,0.035,0.0293,0.0287,0.0282,0.0272,0.0249,0.0248,0.0246,0.0229,0.0229,0.023,0,0,0,0,0,0,0.0411,0.041,0.0403,0.0403,0.0402,0.0379,0.0379,0.0375,0.0364,0.0331,0.0323,0.0346,0.0292,0.0284,0.0275,0.0269,0.0247,0.0245,0.0228,0.0229,0.023,0.0268,0,0,0,0,0,0,0.0411,0.0411,0.0411,0.0404,0.0402,0.0408,0.0381,0.0375,0.0366,0.0361,0.0323,0.0314,0.029,0.0278,0.0273,0.0266,0.0243,0.0227,0.0228,0.0229,0.0266,0.027,0.0274,0,0,0,0,0,0.0411,0.0416,0.0411,0.041,0.0403,0.0409,0.0408,0.0386,0.0367,0.037,0.0348,0.0315,0.0281,0.0278,0.0271,0.0263,0.0226,0.0228,0.0229,0.0264,0.027,0.0274,0,0,0,0,0,0,0.0415,0.0412,0.0406,0.0409,0.041,0.0401,0.0399,0.0388,0.0375,0.0363,0.033,0.0322,0.0312,0.0289,0.0285,0.0263,0.0246,0.0246,0.0274,0.0279,0.0283,0.0259,0.0242,0,0,0,0,0,0.0419,0.0422,0.042,0.0423,0.0423,0.0412,0.041,0.0398,0.0387,0.0378,0.0354,0.0329,0.0317,0.0299,0.0286,0.0276,0.023,0.0266,0.027,0.0273,0.0251,0.0189,0.0185,0.0235,0.0235,0.0235,0,0,0.042,0.042,0.042,0.0424,0.0419,0.0426,0.0407,0.0404,0.0404,0.0372,0.036,0.0346,0.0321,0.0312,0.0303,0.0287,0.024,0.0275,0.0278,0.0253,0.019,0.0185,0.018,0.0236,0.0236,0.0236,0,0,0.0427,0.0425,0.043,0.0435,0.0433,0.0431,0.0432,0.0424,0.0413,0.0411,0.0388,0.037,0.035,0.0328,0.0315,0.0333,0.0271,0.033,0.0318,0.026,0.0254,0.0248,0.02,0.019,0.0322,0.0322,0.0322,0,0.0425,0.0434,0.0433,0.0441,0.0443,0.0435,0.0441,0.0439,0.0428,0.0417,0.0408,0.037,0.0353,0.0329,0.0335,0.0338,0.0295,0.0303,0.0262,0.0256,0.0249,0.02,0.0188,0.0324,0.0324,0.0324,0.0324,0,0.044,0.0444,0.0448,0.0456,0.0462,0.0466,0.0466,0.0463,0.0449,0.0436,0.0412,0.0391,0.0355,0.0359,0.0349,0.0303,0.0286,0.0282,0.0245,0.0246,0.0196,0.0182,0.0327,0.0326,0.0326,0.0325,0,0,0.0434,0.0453,0.0452,0.0461,0.0467,0.0476,0.0478,0.0474,0.0468,0.0443,0.042,0.0397,0.0365,0.0348,0.0332,0.0282,0.0217,0.0258,0.0254,0.0201,0.0083,0.0138,0.0128,0.0199,0.0197,0.0195,0.0071,0,0.0441,0.0459,0.0466,0.0484,0.0494,0.0492,0.05,0.0494,0.048,0.046,0.0414,0.0392,0.0368,0.035,0.0294,0.0243,0.018,0.025,0.0096,0.0091,0.0132,0.0115,0.0084,-0.0023,0.0058,0.0056,0.0054,0,0.045,0.0462,0.0477,0.05,0.0504,0.051,0.0513,0.052,0.0491,0.0476,0.0424,0.0391,0.0318,0.0304,0.0165,0.0207,0.0134,0.0089,0.0083,0.0104,0.0121,-0.0014,-0.0051,0.0032,0.0033,0.0035,0.0037,0,0.0451,0.0471,0.0483,0.049,0.0513,0.0511,0.0519,0.051,0.0524,0.0471,0.0466,0.0368,0.033,0.0211,0.012,0.0125,-0.0025,-0.0028,-0.0053,-0.005,-0.0124,-0.0122,-0.0149,-0.0149,-0.0149,-0.0148,-0.0148,0,0.0461,0.0471,0.0481,0.049,0.0511,0.0515,0.053,0.0527,0.0522,0.0542,0.0463,0.0466,0.0302,0.0214,0.0106,-0.0007,-0.0048,-0.0073,-0.0085,-0.0105,-0.01,-0.009,-0.0082,-0.0153,-0.0152,-0.0151,-0.015,0,0.0468,0.0471,0.0492,0.0507,0.0513,0.0526,0.0558,0.058,0.0561,0.0581,0.0565,0.0511,0.0412,0.0262,0.0089,-0.0,-0.0124,-0.0155,-0.0154,-0.0163,-0.0114,-0.0102,-0.022,-0.0219,-0.0219,-0.0218,-0.0218,0,0.0475,0.0484,0.0508,0.0527,0.0533,0.0553,0.0585,0.0594,0.0633,0.0636,0.0663,0.0575,0.0587,0.036,0.0124,-0.0081,-0.0085,-0.0216,-0.0205,-0.0124,-0.0125,-0.0114,-0.0103,-0.0297,-0.0297,-0.0297,-0.0298,0,0.0496,0.0499,0.0523,0.0559,0.0588,0.0639,0.0682,0.0732,0.0758,0.0802,0.0869,0.0881,0.0649,0.0441,0.0152,0.0019,-0.0187,-0.022,-0.0183,-0.0237,-0.0197,-0.0196,-0.0184,-0.0299,-0.0299,-0.0299,-0.0299,-0.0299,0.0513,0.0537,0.0565,0.0603,0.0644,0.0729,0.0795,0.0883,0.0989,0.1074,0.1057,0.103,0.0694,0.0324,0.0099,-0.0168,-0.0149,-0.0253,-0.0254,-0.0255,-0.0204,-0.0161,-0.0249,-0.0248,-0.0248,-0.0248,-0.0247,0,0.0541,0.0569,0.0611,0.0669,0.0731,0.0739,0.0869,0.0976,0.1146,0.1159,0.124,0.0901,0.0677,0.0336,-0.007,-0.0263,-0.0302,-0.0305,-0.0345,-0.0342,-0.034,-0.0295,-0.0364,-0.0364,-0.0365,-0.0365,0,0,0.0559,0.0606,0.0631,0.0733,0.0773,0.0885,0.0972,0.1153,0.1206,0.1268,0.117,0.107,0.0635,0.03,0.0013,-0.017,-0.0194,-0.0194,-0.0088,-0.0101,-0.0095,-0.0307,-0.0233,0,0,0,0,0]}],[{"header":{"parameterUnit":"m.s-1","parameterCategory":2,"la1":30.2991,"la2":30.254,"lo1":-89.0895,"lo2":-89.0444,"dy":0.0017,"dx":0.0017,"nx":28,"ny":28,"refTime":"2024-04-19T09:00:00:Z","depth":"4","parameterNumber":2,"parameterNumberName":"U-component_of_CURRENTS"},"data":[0,0,0,0,0,0,0,0,0,0,0,0,0,0,0,0,0,0,0,0,0,0,0,0,0,0,0,0,0,0,0,0,0,0,0,0,0,0,0,0,0,0,0,0,0,0,0,0,0,0,0,0,0,0,0,0,0,0,0.0496,0.0496,0,0.0509,0.051,0.051,0.0572,0.0573,0.0574,0.0575,0.0657,0.0658,0.0659,0,0,0,0,0,0,0,0,0,0,0,0,0,0.0497,0.0497,0.0496,0.0496,0.0496,0.0509,0.051,0.051,0.0572,0.0573,0.0574,0.0576,0.0656,0.0658,0.0659,0,0,0,0,0,0,0,0,0,0,0,0,0,0.0506,0.0497,0.0496,0.0525,0.0528,0.0509,0.051,0.0511,0.0571,0.0573,0.0575,0.0576,0.0656,0.0658,0.0659,0.0637,0,0,0.0665,0.0665,0,0,0,0,0,0,0,0,0.0505,0.0506,0.0521,0.0523,0.0526,0.0537,0.054,0.0555,0.0571,0.0559,0.0575,0.0577,0.0619,0.0624,0.0628,0.0641,0.0644,0.0665,0.0666,0.0666,0.0667,0,0,0,0,0,0,0,0.0505,0.0506,0.0505,0.052,0.0523,0.0528,0.0532,0.0543,0.0584,0.056,0.0563,0.0558,0.0622,0.0626,0.063,0.0646,0.0665,0.0666,0.0667,0.0668,0.0675,0.0674,0,0,0,0,0,0,0.0495,0.0505,0.0505,0.0505,0.0515,0.0526,0.0531,0.0535,0.0582,0.059,0.0557,0.0561,0.0622,0.0628,0.0633,0.0679,0.0666,0.0668,0.0669,0.0676,0.0675,0.0674,0,0,0,0,0,0,0.0495,0.0495,0.0504,0.0502,0.0503,0.0525,0.0529,0.0534,0.0577,0.0579,0.0588,0.0597,0.0623,0.0631,0.068,0.0681,0.0669,0.067,0.0677,0.0675,0.0674,0.0727,0,0,0,0,0,0,0.0495,0.0495,0.0507,0.0502,0.0503,0.0516,0.0527,0.0533,0.0566,0.0573,0.0615,0.0623,0.0625,0.0678,0.0682,0.0683,0.0672,0.0678,0.0676,0.0675,0.0727,0.0728,0.0729,0,0,0,0,0,0.0495,0.05,0.0508,0.0508,0.0515,0.0516,0.0518,0.054,0.0567,0.0586,0.0623,0.0623,0.0669,0.068,0.0685,0.0686,0.0679,0.0677,0.0675,0.0726,0.0728,0.0729,0,0,0,0,0,0,0.0509,0.0506,0.0515,0.0521,0.0528,0.0526,0.0546,0.0559,0.0602,0.0621,0.0638,0.0647,0.0683,0.0672,0.0684,0.0675,0.0662,0.0661,0.0699,0.0701,0.0702,0.0717,0.0673,0,0,0,0,0,0.0513,0.0521,0.0518,0.0526,0.0537,0.055,0.056,0.0571,0.0595,0.0617,0.0661,0.0676,0.0667,0.0682,0.0687,0.07,0.0694,0.069,0.0692,0.0693,0.0703,0.0682,0.0683,0.0667,0.0667,0.0667,0,0,0.0517,0.0518,0.0523,0.053,0.0546,0.0558,0.0564,0.0584,0.061,0.0617,0.0703,0.07,0.0674,0.0687,0.0698,0.0688,0.0697,0.0691,0.0693,0.0702,0.068,0.0682,0.0684,0.0666,0.0666,0.0667,0,0,0.0521,0.0541,0.0548,0.0557,0.0573,0.0581,0.0596,0.0628,0.0668,0.0716,0.0716,0.0726,0.0752,0.0727,0.0708,0.0715,0.071,0.0703,0.0725,0.0704,0.0706,0.0707,0.0723,0.0726,0.0698,0.0698,0.0698,0,0.0529,0.0539,0.0551,0.0561,0.0576,0.0599,0.0616,0.0646,0.0698,0.0731,0.0754,0.0769,0.0761,0.0733,0.073,0.0722,0.0722,0.0729,0.0709,0.071,0.0711,0.0727,0.0729,0.07,0.07,0.07,0.0699,0,0.0533,0.055,0.0561,0.0586,0.0603,0.0623,0.0654,0.0707,0.076,0.0784,0.0821,0.0811,0.0812,0.079,0.0768,0.0748,0.0754,0.0722,0.0715,0.0716,0.0732,0.0734,0.0703,0.0703,0.0702,0.0701,0,0,0.0527,0.0559,0.0563,0.0581,0.0622,0.063,0.069,0.0736,0.078,0.0831,0.0881,0.0851,0.0859,0.0835,0.08,0.0776,0.0785,0.0757,0.0755,0.0793,0.0773,0.0744,0.0743,0.0754,0.0754,0.0754,0.0792,0,0.0535,0.0551,0.0571,0.0604,0.0623,0.0667,0.0718,0.0761,0.082,0.0885,0.0872,0.0906,0.0868,0.0871,0.0839,0.0801,0.0788,0.078,0.0749,0.0749,0.0738,0.0742,0.0754,0.0793,0.0793,0.0793,0.0793,0,0.0532,0.0546,0.0574,0.062,0.0637,0.0672,0.0754,0.0804,0.088,0.0925,0.095,0.0959,0.0945,0.0912,0.0862,0.0864,0.0828,0.0795,0.0795,0.075,0.0721,0.0781,0.0796,0.0795,0.0795,0.0795,0.0795,0,0.0514,0.0548,0.0574,0.0588,0.0644,0.0693,0.0752,0.0831,0.0883,0.0972,0.1003,0.1003,0.1012,0.0963,0.0897,0.0892,0.0842,0.0823,0.0767,0.0766,0.0762,0.0759,0.0788,0.0788,0.0787,0.0787,0.0787,0,0.0505,0.0522,0.0576,0.0591,0.0644,0.0701,0.0782,0.0844,0.0931,0.0969,0.103,0.1025,0.1023,0.0989,0.0927,0.0854,0.0866,0.0783,0.0767,0.0785,0.0784,0.0765,0.0762,0.0789,0.0788,0.0788,0.0788,0,0.0467,0.0502,0.0528,0.0601,0.0637,0.0684,0.0804,0.0844,0.0946,0.0996,0.1027,0.1065,0.1036,0.1009,0.0943,0.0893,0.0823,0.0786,0.0839,0.0823,0.0769,0.0768,0.0768,0.0768,0.0767,0.0766,0.0766,0,0.0449,0.046,0.0528,0.0554,0.06,0.0686,0.0737,0.0851,0.0887,0.0976,0.0974,0.1008,0.1008,0.0917,0.0888,0.0829,0.0789,0.079,0.0759,0.078,0.0764,0.0764,0.0764,0.0764,0.0764,0.0764,0.0764,0,0.0412,0.0439,0.0459,0.0517,0.0574,0.0618,0.071,0.0733,0.0837,0.0911,0.0917,0.0924,0.0903,0.0877,0.0852,0.078,0.0816,0.0782,0.0783,0.0754,0.0775,0.076,0.0761,0.0761,0.0762,0.0762,0.0762,0,0.0387,0.0385,0.0423,0.0468,0.0529,0.0556,0.0605,0.0654,0.0712,0.0821,0.0799,0.0828,0.0875,0.0846,0.0786,0.0766,0.0755,0.0735,0.0739,0.0742,0.0711,0.0732,0.0698,0,0,0,0,0,0.0359,0.0353,0.0379,0.0419,0.0471,0.0508,0.058,0.0621,0.071,0.0697,0.0767,0.0741,0.0739,0.0745,0.0715,0.0756,0.0741,0.0719,0.0716,0.0747,0.075,0.0714,0,0,0,0,0,0,0.0339,0.0351,0.0353,0.0376,0.0397,0.044,0.0483,0.0528,0.0542,0.0633,0.0625,0.0707,0.0693,0.0738,0.0699,0.0703,0.0691,0.0747,0.0746,0.0745,0.0748,0.075,0.0714,0,0,0,0,0]},{"header":{"parameterUnit":"m.s-1","parameterCategory":2,"la1":30.2991,"la2":30.254,"lo1":-89.0895,"lo2":-89.0444,"dy":0.0017,"dx":0.0017,"nx":28,"ny":28,"refTime":"2024-04-19T09:00:00:Z","depth":"4","parameterNumber":3,"parameterNumberName":"V-component_of_CURRENTS"},"data":[0,0,0,0,0,0,0,0,0,0,0,0,0,0,0,0,0,0,0,0,0,0,0,0,0,0,0,0,0,0,0,0,0,0,0,0,0,0,0,0,0,0,0,0,0,0,0,0,0,0,0,0,0,0,0,0,0,0,0.011,0.011,0,0.0083,0.0083,0.0082,0.0076,0.0076,0.0076,0.0077,-0.0039,-0.0043,-0.0046,0,0,0,0,0,0,0,0,0,0,0,0,0,0.0127,0.0127,0.011,0.011,0.011,0.0083,0.0083,0.0082,0.0076,0.0076,0.0076,0.0077,-0.0038,-0.0042,-0.0046,0,0,0,0,0,0,0,0,0,0,0,0,0,0.011,0.0127,0.011,0.0105,0.0104,0.0084,0.0083,0.0082,0.0075,0.0076,0.0076,0.0077,-0.0037,-0.0042,-0.0047,-0.0088,0,0,-0.0062,-0.0065,0,0,0,0,0,0,0,0,0.0111,0.011,0.0106,0.0105,0.0104,0.0085,0.0046,0.0021,0.0075,0.0084,0.0077,0.0077,-0.0005,-0.0013,-0.002,-0.0093,-0.0098,-0.0063,-0.0066,-0.0068,-0.0069,0,0,0,0,0,0,0,0.0113,0.011,0.0098,0.0106,0.0105,0.0094,0.0092,0.0042,0.0034,0.0084,0.0084,0.0083,-0.0006,-0.0015,-0.0023,-0.01,-0.0063,-0.0067,-0.007,-0.0072,-0.0216,-0.0217,0,0,0,0,0,0,0.012,0.0112,0.0099,0.0097,0.0111,0.0093,0.0091,0.0089,0.0037,0.003,0.0083,0.0083,-0.0007,-0.0017,-0.0027,-0.0076,-0.0068,-0.0073,-0.0076,-0.0215,-0.0216,-0.0217,0,0,0,0,0,0,0.0121,0.0119,0.01,0.0105,0.0102,0.0093,0.009,0.0088,0.008,0.0037,0.0029,0.0077,-0.0007,-0.002,-0.0076,-0.0081,-0.0075,-0.008,-0.0214,-0.0215,-0.0217,-0.0177,0,0,0,0,0,0,0.0121,0.012,0.0119,0.0106,0.0102,0.0088,0.009,0.0088,0.008,0.008,0.0029,0.0019,-0.0007,-0.0068,-0.0081,-0.0088,-0.0084,-0.0213,-0.0215,-0.0216,-0.0177,-0.0176,-0.0176,0,0,0,0,0,0.0122,0.0119,0.0119,0.0118,0.0103,0.0088,0.0084,0.0078,0.0079,0.0072,0.0036,0.0021,-0.0086,-0.0073,-0.0088,-0.0096,-0.0213,-0.0214,-0.0216,-0.0177,-0.0176,-0.0176,0,0,0,0,0,0,0.0124,0.0118,0.0118,0.0113,0.0103,0.0087,0.0083,0.0076,0.0044,0.0041,0.0003,-0.0011,-0.0063,-0.009,-0.0074,-0.0143,-0.015,-0.0154,-0.0115,-0.0115,-0.0114,-0.0104,-0.0088,0,0,0,0,0,0.0126,0.0123,0.0114,0.0109,0.0106,0.0093,0.0087,0.008,0.0054,0.0042,-0.0,-0.0043,-0.0082,-0.0105,-0.0152,-0.0193,-0.0205,-0.0207,-0.0206,-0.0205,-0.0208,-0.0216,-0.0216,-0.0223,-0.0223,-0.0223,0,0,0.0125,0.0122,0.012,0.011,0.0102,0.0095,0.009,0.0079,0.0065,0.003,-0.0015,-0.0052,-0.0096,-0.0139,-0.0163,-0.016,-0.0211,-0.0207,-0.0206,-0.021,-0.0218,-0.0217,-0.0216,-0.0224,-0.0224,-0.0223,0,0,0.0123,0.0121,0.0119,0.0112,0.0103,0.0093,0.0091,0.0066,0.0049,0.0004,-0.0021,-0.0059,-0.013,-0.0153,-0.0173,-0.0201,-0.0213,-0.0215,-0.0197,-0.0205,-0.0204,-0.0203,-0.0216,-0.0217,-0.0206,-0.0206,-0.0206,0,0.0123,0.0122,0.0115,0.0112,0.0109,0.0094,0.009,0.0068,0.0023,0.0002,-0.0009,-0.0099,-0.0134,-0.017,-0.0173,-0.0198,-0.0204,-0.0191,-0.0201,-0.0201,-0.02,-0.0215,-0.0216,-0.0204,-0.0204,-0.0205,-0.0205,0,0.0121,0.0121,0.0119,0.0114,0.0105,0.0099,0.0076,0.0051,0.0027,0.0001,-0.0055,-0.0101,-0.0144,-0.016,-0.0175,-0.0192,-0.0198,-0.0202,-0.0195,-0.0197,-0.0212,-0.0214,-0.0202,-0.0202,-0.0203,-0.0203,0,0,0.012,0.0119,0.0119,0.0123,0.0108,0.0103,0.0076,0.0048,0.0034,-0.0021,-0.0048,-0.0107,-0.0124,-0.0148,-0.017,-0.0176,-0.0177,-0.018,-0.0182,-0.018,-0.0194,-0.0196,-0.0199,-0.0172,-0.0173,-0.0173,-0.0204,0,0.0122,0.0127,0.012,0.0121,0.0123,0.0105,0.0086,0.0056,0.002,-0.0018,-0.0063,-0.01,-0.012,-0.0129,-0.0142,-0.0175,-0.018,-0.0168,-0.0206,-0.0207,-0.0197,-0.0201,-0.0173,-0.0206,-0.0206,-0.0207,-0.0207,0,0.0122,0.0129,0.0135,0.0136,0.0135,0.0131,0.0109,0.0087,0.0034,0.0007,-0.0034,-0.0072,-0.0104,-0.0112,-0.0159,-0.0147,-0.0166,-0.0188,-0.0189,-0.0208,-0.0213,-0.0207,-0.021,-0.021,-0.021,-0.021,-0.0209,0,0.0135,0.0138,0.0148,0.0148,0.0144,0.0141,0.0133,0.0093,0.0081,0.0028,0.0019,-0.0041,-0.0058,-0.0097,-0.0149,-0.0145,-0.02,-0.02,-0.0224,-0.0225,-0.0229,-0.0229,-0.0224,-0.0224,-0.0224,-0.0224,-0.0224,0,0.0141,0.0148,0.0159,0.0167,0.018,0.0163,0.0165,0.0143,0.0115,0.0106,0.0044,0.0025,-0.005,-0.0097,-0.0143,-0.0195,-0.0193,-0.0226,-0.0232,-0.0213,-0.0212,-0.023,-0.023,-0.0225,-0.0225,-0.0224,-0.0224,0,0.0148,0.0155,0.0171,0.0181,0.019,0.0197,0.0207,0.0203,0.0178,0.0167,0.016,0.0083,0.0016,-0.0065,-0.0139,-0.0176,-0.0232,-0.0248,-0.023,-0.0235,-0.0254,-0.0252,-0.0276,-0.0276,-0.0277,-0.0277,-0.0277,0,0.015,0.0162,0.0192,0.0212,0.022,0.0236,0.025,0.0238,0.024,0.0202,0.02,0.0127,0.007,-0.0043,-0.0135,-0.0235,-0.0243,-0.0267,-0.0257,-0.0255,-0.0259,-0.0257,-0.0255,-0.0277,-0.0278,-0.0278,-0.0278,0,0.0156,0.017,0.0188,0.0233,0.026,0.0285,0.0305,0.032,0.0303,0.029,0.0244,0.0163,0.0077,-0.0038,-0.0119,-0.019,-0.0252,-0.027,-0.0269,-0.026,-0.0257,-0.026,-0.0258,-0.0279,-0.0279,-0.0278,-0.0278,0,0.0162,0.0178,0.021,0.0248,0.029,0.0321,0.0329,0.0338,0.0342,0.0312,0.0292,0.0182,0.0115,-0.0016,-0.0094,-0.0167,-0.0179,-0.0185,-0.0189,-0.0189,-0.016,-0.0143,-0.0135,0,0,0,0,0,0.0166,0.0188,0.0223,0.0265,0.0308,0.0331,0.0362,0.0364,0.0365,0.0349,0.0326,0.0243,0.0103,0.0023,-0.0047,-0.0105,-0.0198,-0.0189,-0.0207,-0.0284,-0.0283,-0.0264,0,0,0,0,0,0,0.0168,0.0201,0.022,0.0277,0.0309,0.035,0.0373,0.0368,0.0361,0.0348,0.0271,0.0237,0.0093,0.0147,-0.0047,-0.0074,-0.0091,-0.0258,-0.0259,-0.0285,-0.0284,-0.0283,-0.0263,0,0,0,0,0]}]]